Flag for Austria Weather past 2 weeks in Kirchdorf an der Krems, Upper Austria, Austria

Now
69 °F

Mild.


Feels Like: 69 °F
Forecast: 56 / 84 °F
Wind: 2 mph from Southwest

Location: Kremsmuenster

Current Time: Jul 1, 2015 at 12:10:06 AM

Latest Report: Jun 30, 2015 at 11:00 PM


Visibility: N/A

Pressure: 30.12 "Hg

Humidity: 70%

Dew point: 58 °F

Location of Kirchdorf an der KremsLocation

Historic Weather in Kirchdorf an der Krems — Graph

°F

Kirchdorf an der Krems temperature yesterday

Maximum temperature yesterday: 81 °F (at 3:00 PM)
Minimum temperature yesterday: 59 °F (at 7:00 AM)
Average temperature yesterday: 69 °F

Past Weeks' High & Low Weather Summary

 TemperatureHumidityPressure
High81 °F (Jun 30, 3:00 PM)95% (Jun 16, 4:00 AM)30.27 "Hg (Jun 16, 4:00 AM)
Low49 °F (Jun 25, 6:00 AM)28% (Jun 25, 4:00 PM)29.72 "Hg (Jun 23, 2:00 AM)
Average61 °F72%30.08 "Hg
* Reported Jun 15 10:00 PM — Jun 30 10:00 PM, Kirchdorf an der Krems, Weather by CustomWeather, © 2015

Note: Actual official high and low records may vary slightly from our data, if they occured in-between our weather recording intervals... More about our weather records

Advertising

Kirchdorf an der Krems weather history for previous 24 hours

 ConditionsComfort  
Time TempWeatherWind HumidityBarometerVisibility
10:00 PM
Tue, Jun 30
70 °FMild.2 mph68%30.11 "HgN/A
9:00 PM73 °FMild.2 mph60%30.09 "HgN/A
8:00 PM75 °FPartly sunny.3 mph55%30.09 "Hg25 mi
6:00 PM77 °FMild.5 mph56%30.08 "HgN/A
4:00 PM78 °FWarm.5 mph48%30.10 "HgN/A
3:00 PM81 °FWarm.2 mph42%30.09 "HgN/A
2:00 PM81 °FPleasantly warm.1 mph39%30.10 "HgN/A
1:00 PM80 °FWarm.1 mph44%30.12 "HgN/A
12:00 PM77 °FWarm.No wind51%30.13 "HgN/A
11:00 AM75 °FPartly sunny.1 mph68%30.14 "Hg34 mi
10:00 AM71 °FMild.2 mph72%30.16 "HgN/A
9:00 AM66 °FMild.1 mph78%30.16 "HgN/A
8:00 AM62 °FCool.2 mph84%30.18 "HgN/A
7:00 AM59 °FCool.No wind89%30.19 "HgN/A
6:00 AM59 °FCool.3 mph88%30.18 "HgN/A
5:00 AM59 °FPassing clouds.16 mph89%30.16 "Hg3 mi
4:00 AM60 °FCool.3 mph87%30.17 "HgN/A
3:00 AM60 °FCool.1 mph87%30.19 "HgN/A
2:00 AM60 °FCool.1 mph88%30.19 "HgN/A
1:00 AM62 °FCool.1 mph85%30.18 "HgN/A
12:00 AM64 °FPassing clouds.20 mph82%30.18 "Hg2 mi
Weather by CustomWeather, © 2015

See weather overviewHow to use our weather pages